Location: Unspecified
(0.0000°N, 0.0000°E)
Time: 01:23:09
(UTC+00:00)

Vanguard 3 - Pass Details

Date: 28 November 2019
Orbit: 508 x 3263 km, 33.3° (Epoch: 11 December)

Event Time Altitude Azimuth Distance (km) Brightness Sun altitude
Rises 07:36:50 0° 236° (SW) 3,624 10.2 25.3°
Reaches altitude 10° 07:38:55 10° 236° (SW) 2,915 9.8 25.7°
Maximum altitude 07:46:16 86° 324° (NW) 1,581 9.0 27.4°
Drops below altitude 10° 07:59:57 10° 53° (NE) 5,140 11.7 30.5°
Sets 08:04:53 0° 54° (NE) 6,529 12.1 31.6°
